Flag for India Weather past 2 weeks in Varanasi, Uttar Pradesh, India

Now
90 °F

Scattered clouds.


Feels Like: 88 °F
Forecast: 72 / 98 °F
Wind: 2 mph from North

Location: Lucknow / Amausi

Current Time: Apr 1, 2015 at 7:00:32 PM

Latest Report: Apr 1, 2015 at 6:00 PM


Visibility: 3 mi

Pressure: 29.71 "Hg

Humidity: 33%

Dew point: 57 °F

Location of VaranasiLocation

Historic Weather in Varanasi — Graph

°F

Varanasi temperature yesterday

Maximum temperature yesterday: 90 °F (at 4:30 PM)
Minimum temperature yesterday: 66 °F (at 5:30 AM)
Average temperature yesterday: 78 °F

Past Weeks' High & Low Weather Summary

 TemperatureHumidityPressure
High100 °F (Mar 26, 2:30 PM)88% (Mar 18, 5:30 AM)30.04 "Hg (Mar 18, 5:30 AM)
Low57 °F (Mar 20, 6:00 AM)20% (Mar 28, 4:30 PM)29.53 "Hg (Mar 22, 3:00 PM)
Average79 °F57%29.87 "Hg
* Reported Mar 17 5:30 PM — Apr 1 5:30 PM, Varanasi, Weather by CustomWeather, © 2015

Note: Actual official high and low records may vary slightly from our data, if they occured in-between our weather recording intervals... More about our weather records

Advertising

Varanasi weather history for previous 24 hours

 ConditionsComfort  
Time TempWeatherWind HumidityBarometerVisibility
5:30 PM
Wed, Apr 1
90 °FScattered clouds.2 mph33%29.71 "Hg3 mi
4:30 PM95 °FScattered clouds.2 mph34%29.71 "Hg4 mi
4:00 PM95 °FScattered clouds.5 mph34%29.71 "Hg4 mi
3:30 PM95 °FScattered clouds.5 mph34%29.71 "Hg4 mi
3:00 PM95 °FScattered clouds.5 mph34%29.71 "Hg4 mi
2:30 PM95 °FScattered clouds.6 mph34%29.74 "Hg4 mi
2:00 PM93 °FBroken clouds.5 mph34%29.77 "Hg3 mi
1:30 PM91 °FBroken clouds.8 mph38%29.77 "Hg3 mi
1:00 PM91 °FBroken clouds.3 mph41%29.80 "Hg3 mi
12:30 PM91 °FBroken clouds.8 mph41%29.80 "Hg3 mi
12:00 PM90 °FBroken clouds.6 mph46%29.83 "Hg3 mi
11:30 AM88 °FPartly sunny.5 mph43%29.83 "Hg3 mi
11:00 AM86 °FPartly sunny.5 mph49%29.83 "Hg3 mi
10:30 AM84 °FScattered clouds.2 mph51%29.83 "Hg3 mi
10:00 AM82 °FScattered clouds.2 mph58%29.86 "Hg3 mi
9:30 AM82 °FHaze.2 mph58%29.83 "Hg3 mi
9:00 AM81 °FScattered clouds.2 mph62%29.83 "Hg2 mi
8:00 AM73 °FScattered clouds.2 mph74%29.83 "Hg2 mi
7:30 AM72 °FFog.No wind78%29.80 "Hg2 mi
7:00 AM68 °FFog.No wind88%29.80 "Hg2 mi
6:30 AM66 °FFog.No wind88%29.80 "Hg2 mi
6:00 AM66 °FFog.No wind88%29.80 "Hg2 mi
5:00 AM68 °FPassing clouds.No wind83%29.77 "Hg2 mi
3:00 AM73 °FPassing clouds.2 mph74%29.77 "Hg2 mi
12:00 AM75 °FPassing clouds.2 mph69%29.80 "Hg2 mi
11:00 PM
Tue, Mar 31
75 °FPassing clouds.2 mph65%29.80 "Hg2 mi
10:00 PM77 °FPassing clouds.No wind61%29.80 "Hg2 mi
9:00 PM77 °FPassing clouds.2 mph61%29.80 "Hg2 mi
8:30 PM77 °FPassing clouds.2 mph61%29.80 "Hg2 mi
7:00 PM82 °FPassing clouds.2 mph55%29.77 "Hg3 mi
Weather by CustomWeather, © 2015

See weather overviewHow to use our weather pages